Regional Weather Roundup
Issued by NWS Sterling, VA

Home | Current Version | Previous Version | Graphics & Text | Print | Product List | Glossary On
Versions: 1 2 3 4 5 6 7 8 9 10 11 12 13 14 15 16 17 18 19 20 21 22 23 24 25 26 27 28 29 30 31 32 33 34 35 36 37 38 39 40 41 42 43 44 45 46 47 48 49 50
000
ASUS41 KLWX 231310
RWRLWX

REGIONAL WEATHER ROUNDUP
NATIONAL WEATHER SERVICE BALTIMORE MD/WASHINGTON DC
900 AM EDT TUE SEP 23 2014

Note: "FAIR" indicates few or no clouds below 12,000 feet
with no significant weather and/or obstructions to visibility.
 TC=TEMPERATURE CELSIUS

 * =Non NWS site. Station does not report precipitation (e.g. rain,
    snow, etc.), thunder, or fog.

DCZ001-MDZ009-015-VAZ040>042-051-053>054-231400-
WASHINGTON METRO

CITY           SKY/WX    TMP DP  RH WIND       PRES   REMARKS
WASHINGTON NAT MOSUNNY   60  42  51 NE8       30.35R
DULLES         MOSUNNY   53  42  66 NW5       30.36R
ANDREWS AFB    MOSUNNY   57  44  62 N12       30.34R
QUANTICO       MOSUNNY   57  43  59 N9        30.36R
COLLEGE PARK*  MOSUNNY   55  46  71 CALM      30.34R
LEESBURG*      SUNNY     55  46  71 N5        30.36R
GAITHERSBURG*  SUNNY     54  45  71 N5        30.39R

$$

MDZ006>007-011-014-231400-
BALTIMORE METRO

CITY           SKY/WX    TMP DP  RH WIND       PRES   REMARKS
BWI AIRPORT    MOSUNNY   58  44  60 N8        30.34R
MD SCIENCE CTR   N/A     58  44  60 MISG      30.34R
MARTIN STATE   MOSUNNY   57  48  72 W5        30.36R
ANNAPOLIS      MOSUNNY   57  47  69 NW7       30.34R
FORT MEADE*    SUNNY     54  45  71 N3        30.36R

$$

MDZ012-015-019>023-231400-
MARYLAND EASTERN SHORE

CITY           SKY/WX    TMP DP  RH WIND       PRES   REMARKS
OCEAN CITY     PTSUNNY   56  47  71 NW5       30.31R
SALISBURY      PTSUNNY   56  45  66 N6        30.32R
BAY BRIDGE AP*   N/A     59  43  55 N7        30.34R
CAMBRIDGE*     MOSUNNY   57  43  58 N7        30.33R
EASTON*        SUNNY     55  48  76 CALM      30.37R

$$

MDZ017>025-231400-
SOUTHERN MARYLAND

CITY           SKY/WX    TMP DP  RH WIND       PRES   REMARKS
PATUXENT RIVER PTSUNNY   59  40  49 NE13      30.33R
ST INIGOES     PTSUNNY   58  40  51 NE7       30.32R
LEONARDTOWN*   PTSUNNY   55  46  71 CALM      30.35R

$$

MDZ003>005-231400-
NORTH CENTRAL MARYLAND

CITY           SKY/WX    TMP DP  RH WIND       PRES   REMARKS
FREDERICK*     SUNNY     54  46  76 CALM      30.38R
HAGERSTOWN APT SUNNY     51  41  68 NW5       30.35R
WESTMINSTER*   SUNNY     52  43  71 CALM      30.34R

$$

MDZ501>502-231400-
WESTERN MARYLAND

CITY           SKY/WX    TMP DP  RH WIND       PRES   REMARKS
OAKLAND*       SUNNY     45 N/A N/A E6        30.34R
CUMBERLAND*    SUNNY     46  43  87 N5        30.40S

$$

VAZ025>031-231400-
SHENANDOAH VALLEY

CITY           SKY/WX    TMP DP  RH WIND       PRES   REMARKS
WINCHESTER*    SUNNY     54  43  66 NW5       30.35S
STAUNTON*      MOSUNNY   47  42  82 CALM      30.37R

$$

WVZ021-048>050-054>055-231400-
EASTERN WEST VIRGINIA PANHANDLE

CITY           SKY/WX    TMP DP  RH WIND       PRES   REMARKS
MARTINSBURG    SUNNY     50  42  74 CALM      30.37R
PETERSBURG*    SUNNY     43  41  93 CALM      30.39R

$$

VAZ036>039-050-231400-
CENTRAL FOOTHILLS

CITY           SKY/WX    TMP DP  RH WIND       PRES   REMARKS
CHARLOTTESVILL MOSUNNY   53  44  71 N5        30.35R
ORANGE*        MOSUNNY   55  43  62 N7        30.36R

$$

VAZ055>057-231400-
NORTH AND CENTRAL PIEDMONT

CITY           SKY/WX    TMP DP  RH WIND       PRES   REMARKS
FREDERICKSBRG* MOSUNNY   55  44  65 N6        30.34R
STAFFORD*      MOSUNNY   55  44  66 CALM      30.39R

$$

NCZ024-NYZ072-PAZ021-071-VAZ022-071-231400-
OTHER REGIONAL OBSERVATIONS

CITY           SKY/WX    TMP DP  RH WIND       PRES   REMARKS
NEW YORK CITY  SUNNY     55  40  56 CALM      30.34R
PHILADELPHIA   MOSUNNY   57  42  57 N8        30.33R
PITTSBURGH     MOSUNNY   45  42  89 CALM      30.37R
ROANOKE        MOSUNNY   53  46  77 CALM      30.38R
RICHMOND       PTSUNNY   57  44  62 N10       30.33R
RALEIGH        CLOUDY    58  45  62 NE7       30.32R

$$

ANZ530>537-231400-
MARINE OBSERVATIONS

STATION/POSITION TIME  TEMP    WIND        PRES
                       AIR SEA DIR/SP/G
                 (UTC) (F)     (DEG/KT/KT) (MB)
THOMAS PT LIGHT  1300   57 71  360/ 12/ 14 1028.2R
BALT KEY BRIDGE  1300   56     340/ 10/ 11 1027.1R
COVE POINT       1300   58      40/ 13/ 15 1027.1R
LEWISETTA        1300   60 71   60/ 11/ 16 1026.5R
SOLOMONS ISLAND  1300      74                N/A
PINEY POINT      1300           60/  6/  8   N/A

$$




USA.gov is the U.S. government's official web portal to all federal, state and local government web resources and services.